[[{"header":{"parameterUnit":"m.s-1","parameterCategory":1,"la1":30.2991,"la2":30.254,"lo1":-89.0895,"lo2":-89.0444,"dy":0.0017,"dx":0.0017,"nx":28,"ny":28,"refTime":"2024-12-16T09:00:00:Z","depth":0,"parameterNumber":2,"parameterNumberName":"U-component_of_WINDS"},"data":[0,0,0,0,0,0,0,0,0,0,0,0,0,0,0,0,0,0,0,0,0,0,0,0,0,0,0,0,0,0,0,0,0,0,0,0,0,0,0,0,0,0,0,0,0,0,0,0,0,0,0,0,0,0,0,0,0,0,-1.4385,-1.4386,0,-1.4414,-1.4415,-1.4415,-1.4354,-1.4352,-1.435,-1.4348,-1.4383,-1.4386,-1.4389,0,0,0,0,0,0,0,0,0,0,0,0,0,-1.4286,-1.4288,-1.4385,-1.4386,-1.4386,-1.4414,-1.4415,-1.4415,-1.4354,-1.4352,-1.435,-1.4347,-1.4382,-1.4386,-1.4389,0,0,0,0,0,0,0,0,0,0,0,0,0,-1.4324,-1.4289,-1.4385,-1.4359,-1.4357,-1.4414,-1.4415,-1.4415,-1.4355,-1.4352,-1.4349,-1.4346,-1.4381,-1.4385,-1.439,-1.4475,0,0,-1.4402,-1.4404,0,0,0,0,0,0,0,0,-1.4322,-1.4328,-1.4363,-1.4361,-1.4359,-1.4377,-1.4392,-1.4435,-1.4356,-1.4356,-1.4348,-1.4345,-1.4384,-1.4388,-1.44,-1.4477,-1.4478,-1.4403,-1.4405,-1.4407,-1.4408,0,0,0,0,0,0,0,-1.4319,-1.4326,-1.4397,-1.4363,-1.4361,-1.4349,-1.4351,-1.44,-1.4387,-1.4356,-1.4351,-1.4355,-1.4383,-1.4396,-1.44,-1.4479,-1.4403,-1.4406,-1.4409,-1.4411,-1.4632,-1.4635,0,0,0,0,0,0,-1.4319,-1.4324,-1.4396,-1.4398,-1.4332,-1.4353,-1.4355,-1.4375,-1.4386,-1.4385,-1.4358,-1.4352,-1.4391,-1.4396,-1.4402,-1.4505,-1.4407,-1.4411,-1.4413,-1.4629,-1.4633,-1.4637,0,0,0,0,0,0,-1.4317,-1.4326,-1.4395,-1.436,-1.4368,-1.4358,-1.438,-1.4377,-1.439,-1.4387,-1.4385,-1.4374,-1.4388,-1.4396,-1.4458,-1.4505,-1.4413,-1.4417,-1.4625,-1.463,-1.4635,-1.4711,0,0,0,0,0,0,-1.4314,-1.4326,-1.4356,-1.4361,-1.437,-1.4448,-1.4383,-1.4379,-1.4397,-1.439,-1.4402,-1.4401,-1.4387,-1.4452,-1.4462,-1.4509,-1.442,-1.4621,-1.4627,-1.4633,-1.4704,-1.4718,-1.473,0,0,0,0,0,-1.4311,-1.4376,-1.4357,-1.4366,-1.4407,-1.4451,-1.4456,-1.4437,-1.4401,-1.4433,-1.4432,-1.44,-1.4499,-1.4459,-1.447,-1.4519,-1.4618,-1.4625,-1.4633,-1.4698,-1.4715,-1.473,0,0,0,0,0,0,-1.4378,-1.4376,-1.4355,-1.4424,-1.4438,-1.4441,-1.448,-1.4455,-1.4481,-1.4474,-1.445,-1.4454,-1.4522,-1.4527,-1.4482,-1.4605,-1.4552,-1.4563,-1.4599,-1.4615,-1.4627,-1.4625,-1.4423,0,0,0,0,0,-1.44,-1.4434,-1.4432,-1.4493,-1.4501,-1.449,-1.4508,-1.4492,-1.4507,-1.4513,-1.4516,-1.4533,-1.4568,-1.4592,-1.4624,-1.4705,-1.4709,-1.4745,-1.4758,-1.4768,-1.4777,-1.4825,-1.4842,-1.4662,-1.4662,-1.4661,0,0,-1.4447,-1.4451,-1.4474,-1.4506,-1.4515,-1.4554,-1.4495,-1.4537,-1.4566,-1.452,-1.4578,-1.4583,-1.4601,-1.4674,-1.4706,-1.468,-1.4828,-1.4778,-1.4786,-1.479,-1.4834,-1.4851,-1.4867,-1.4667,-1.4666,-1.4665,0,0,-1.4553,-1.4558,-1.461,-1.4621,-1.4635,-1.4628,-1.4641,-1.4648,-1.4649,-1.4707,-1.4674,-1.4711,-1.477,-1.4786,-1.4801,-1.4918,-1.4891,-1.4929,-1.4996,-1.5042,-1.5057,-1.5069,-1.5113,-1.5129,-1.4938,-1.4938,-1.4938,0,-1.461,-1.4664,-1.4641,-1.4686,-1.4703,-1.4662,-1.4717,-1.473,-1.4755,-1.4769,-1.4739,-1.4816,-1.4825,-1.4903,-1.4932,-1.4945,-1.4962,-1.4927,-1.5056,-1.5068,-1.508,-1.5121,-1.5138,-1.4943,-1.4942,-1.4942,-1.4941,0,-1.4735,-1.4773,-1.4814,-1.4839,-1.486,-1.4911,-1.4898,-1.4924,-1.4908,-1.4905,-1.4968,-1.4978,-1.5013,-1.503,-1.5014,-1.5108,-1.5091,-1.5059,-1.5006,-1.5102,-1.5141,-1.5156,-1.495,-1.4948,-1.4946,-1.4945,0,0,-1.488,-1.4893,-1.4909,-1.4921,-1.4936,-1.4967,-1.5018,-1.505,-1.5074,-1.5094,-1.5138,-1.5192,-1.5163,-1.5181,-1.5168,-1.5208,-1.5304,-1.5172,-1.5172,-1.5198,-1.5411,-1.5435,-1.5454,-1.5287,-1.5289,-1.5292,-1.541,0,-1.4986,-1.5069,-1.5053,-1.5136,-1.5174,-1.5138,-1.5182,-1.5199,-1.5198,-1.5233,-1.5233,-1.5273,-1.5231,-1.5242,-1.5281,-1.5284,-1.5346,-1.5275,-1.533,-1.5332,-1.5327,-1.5473,-1.5498,-1.5609,-1.5425,-1.5427,-1.5429,0,-1.5119,-1.5144,-1.5231,-1.5243,-1.5258,-1.5298,-1.5329,-1.5361,-1.5381,-1.5378,-1.54,-1.538,-1.5435,-1.5381,-1.5458,-1.541,-1.5432,-1.5438,-1.5442,-1.5446,-1.5386,-1.5484,-1.5643,-1.5661,-1.5452,-1.545,-1.5449,0,-1.5219,-1.5274,-1.5334,-1.5346,-1.5361,-1.539,-1.5399,-1.5415,-1.5437,-1.5465,-1.548,-1.5515,-1.5535,-1.5564,-1.5556,-1.5517,-1.5636,-1.5581,-1.5638,-1.5638,-1.5664,-1.5662,-1.5831,-1.5677,-1.5677,-1.5676,-1.5676,0,-1.5339,-1.5394,-1.5379,-1.5416,-1.5479,-1.5461,-1.5524,-1.5529,-1.5544,-1.5584,-1.5556,-1.5595,-1.5581,-1.5621,-1.5615,-1.5681,-1.569,-1.5692,-1.569,-1.5695,-1.5695,-1.5709,-1.5701,-1.5681,-1.568,-1.5679,-1.5678,0,-1.546,-1.5452,-1.5516,-1.5526,-1.553,-1.5576,-1.5586,-1.5623,-1.5622,-1.5673,-1.5684,-1.5683,-1.5729,-1.5723,-1.5774,-1.5771,-1.5853,-1.5842,-1.5846,-1.5844,-1.5902,-1.5897,-1.6086,-1.6111,-1.594,-1.5942,-1.5943,0,-1.5537,-1.5579,-1.5594,-1.5618,-1.5628,-1.5667,-1.569,-1.5676,-1.5701,-1.5729,-1.5764,-1.5806,-1.5839,-1.5914,-1.592,-1.596,-1.5949,-1.6013,-1.5955,-1.596,-1.5953,-1.5951,-1.5956,-1.6024,-1.6026,-1.6028,-1.6029,0,-1.5676,-1.5671,-1.5703,-1.5736,-1.5764,-1.5789,-1.5812,-1.5834,-1.5823,-1.5854,-1.5899,-1.5925,-1.5977,-1.6021,-1.606,-1.6072,-1.6051,-1.6048,-1.6063,-1.6069,-1.607,-1.6072,-1.5878,-1.6043,-1.6042,-1.6041,-1.604,-1.6039,-1.5778,-1.5815,-1.5832,-1.587,-1.5886,-1.591,-1.5945,-1.5949,-1.5986,-1.6026,-1.6017,-1.6069,-1.6092,-1.6142,-1.6158,-1.6201,-1.6178,-1.62,-1.6206,-1.6212,-1.622,-1.6063,-1.6208,-1.6208,-1.6207,-1.6207,-1.6207,0,-1.5916,-1.5926,-1.5962,-1.5995,-1.6027,-1.6002,-1.6028,-1.6057,-1.6102,-1.6125,-1.6158,-1.6213,-1.6257,-1.6267,-1.631,-1.6343,-1.6334,-1.6355,-1.6352,-1.6356,-1.6237,-1.6219,-1.6361,-1.6361,-1.6361,-1.6361,-1.6361,-1.6361,-1.5992,-1.6054,-1.6051,-1.6123,-1.6133,-1.6182,-1.6199,-1.6222,-1.624,-1.6302,-1.6337,-1.6343,-1.6363,-1.6407,-1.6448,-1.645,-1.6468,-1.6493,-1.6492,-1.638,-1.6364,-1.635,-1.6333,-1.6497,-1.6497,-1.6608,-1.6609,-1.661]},{"header":{"parameterUnit":"m.s-1","parameterCategory":1,"la1":30.2991,"la2":30.254,"lo1":-89.0895,"lo2":-89.0444,"dy":0.0017,"dx":0.0017,"nx":28,"ny":28,"refTime":"2024-12-16T09:00:00:Z","depth":0,"parameterNumber":3,"parameterNumberName":"V-component_of_WINDS"},"data":[0,0,0,0,0,0,0,0,0,0,0,0,0,0,0,0,0,0,0,0,0,0,0,0,0,0,0,0,0,0,0,0,0,0,0,0,0,0,0,0,0,0,0,0,0,0,0,0,0,0,0,0,0,0,0,0,0,0,0.8297,0.8298,0,0.8373,0.8374,0.8375,0.8468,0.847,0.8471,0.8473,0.8547,0.8547,0.8548,0,0,0,0,0,0,0,0,0,0,0,0,0,0.823,0.8231,0.8297,0.8298,0.8299,0.8373,0.8374,0.8375,0.8468,0.847,0.8472,0.8474,0.8547,0.8547,0.8548,0,0,0,0,0,0,0,0,0,0,0,0,0,0.8278,0.8231,0.8297,0.8354,0.836,0.8373,0.8374,0.8375,0.8468,0.847,0.8472,0.8474,0.8546,0.8547,0.8548,0.8509,0,0,0.8551,0.8551,0,0,0,0,0,0,0,0,0.8275,0.828,0.8345,0.8351,0.8357,0.8414,0.8378,0.842,0.8467,0.8427,0.8473,0.8475,0.85,0.8505,0.8514,0.8512,0.8515,0.8551,0.8551,0.8552,0.8552,0,0,0,0,0,0,0,0.8272,0.8277,0.8327,0.8346,0.8353,0.8376,0.8385,0.8386,0.845,0.8431,0.8438,0.8445,0.8504,0.8513,0.8517,0.8516,0.8551,0.8552,0.8552,0.8552,0.8485,0.8483,0,0,0,0,0,0,0.826,0.8274,0.8325,0.8329,0.8321,0.8375,0.8385,0.8393,0.845,0.8461,0.8443,0.845,0.8511,0.8516,0.852,0.8477,0.8552,0.8552,0.8553,0.8488,0.8485,0.8482,0,0,0,0,0,0,0.8258,0.8264,0.8322,0.8304,0.8313,0.8374,0.8382,0.8393,0.8403,0.846,0.8472,0.8441,0.8513,0.8519,0.8511,0.8481,0.8553,0.8554,0.849,0.8487,0.8484,0.839,0,0,0,0,0,0,0.8256,0.8262,0.8249,0.8303,0.8313,0.8312,0.838,0.8393,0.8405,0.8413,0.8461,0.8471,0.8515,0.8509,0.8512,0.8483,0.8554,0.8493,0.8489,0.8485,0.8396,0.8384,0.8374,0,0,0,0,0,0.8253,0.8219,0.8247,0.8253,0.8297,0.831,0.8316,0.8368,0.8402,0.8388,0.8425,0.847,0.8484,0.8508,0.8511,0.8482,0.8495,0.849,0.8485,0.8402,0.8387,0.8374,0,0,0,0,0,0,0.8158,0.8227,0.8259,0.8241,0.8269,0.8326,0.831,0.8351,0.8369,0.8376,0.8439,0.8449,0.8433,0.8458,0.8483,0.8447,0.8496,0.8492,0.8431,0.8418,0.8407,0.84,0.8555,0,0,0,0,0,0.8135,0.814,0.82,0.8178,0.8191,0.8248,0.8255,0.8293,0.8324,0.8336,0.8372,0.8399,0.841,0.8416,0.8429,0.8402,0.8412,0.8384,0.8372,0.8363,0.8357,0.8343,0.8331,0.8465,0.8466,0.8466,0,0,0.8087,0.8126,0.8125,0.816,0.8186,0.8189,0.8257,0.8257,0.826,0.8336,0.8331,0.8358,0.8393,0.8375,0.8369,0.8395,0.8323,0.8356,0.8348,0.8348,0.8337,0.8324,0.8312,0.8462,0.8463,0.8463,0,0,0.8001,0.8032,0.8017,0.8042,0.8081,0.8119,0.8116,0.8166,0.8188,0.8185,0.8241,0.8245,0.8263,0.8285,0.8298,0.8222,0.8263,0.8225,0.8164,0.815,0.814,0.8131,0.8102,0.8091,0.822,0.8219,0.8219,0,0.7936,0.7944,0.8003,0.8,0.8014,0.8085,0.8069,0.8091,0.8131,0.8138,0.8168,0.8191,0.822,0.8207,0.8189,0.8198,0.8195,0.8218,0.8137,0.8128,0.8121,0.8094,0.8083,0.8214,0.8215,0.8215,0.8216,0,0.7862,0.7867,0.785,0.7889,0.7901,0.7891,0.7948,0.7953,0.799,0.8025,0.802,0.8057,0.8079,0.808,0.8115,0.8072,0.8087,0.8126,0.8176,0.8102,0.8077,0.8068,0.8207,0.8209,0.821,0.8212,0,0,0.7716,0.7789,0.7781,0.78,0.7849,0.7853,0.7847,0.787,0.7872,0.7898,0.7894,0.7908,0.7944,0.7959,0.7999,0.7987,0.7922,0.8027,0.8029,0.8005,0.7875,0.7844,0.7831,0.7951,0.795,0.7948,0.7872,0,0.7638,0.7632,0.7685,0.7665,0.7669,0.7737,0.7732,0.7761,0.7794,0.7802,0.7838,0.7846,0.7894,0.7904,0.7895,0.7932,0.7897,0.7939,0.7946,0.7945,0.7932,0.7819,0.7786,0.7712,0.7863,0.7861,0.786,0,0.7545,0.7567,0.7547,0.7597,0.7601,0.7596,0.762,0.7628,0.7662,0.7687,0.7704,0.775,0.7747,0.7796,0.7792,0.7819,0.7825,0.7844,0.7842,0.7843,0.7896,0.7814,0.769,0.7677,0.7846,0.7847,0.7848,0,0.7438,0.7463,0.7454,0.7468,0.7527,0.7521,0.7546,0.7582,0.7592,0.7614,0.7621,0.7642,0.7652,0.7667,0.7716,0.7748,0.7705,0.7759,0.7724,0.7723,0.771,0.771,0.7582,0.7718,0.7718,0.7718,0.7718,0,0.7344,0.7328,0.7407,0.7401,0.7386,0.7448,0.7431,0.7462,0.7494,0.7494,0.7555,0.7554,0.7621,0.7627,0.7666,0.7655,0.766,0.7679,0.7689,0.7672,0.7669,0.7675,0.7681,0.7715,0.7716,0.7716,0.7717,0,0.7221,0.7273,0.7268,0.7325,0.7339,0.7325,0.7373,0.7369,0.7407,0.7407,0.7411,0.7469,0.7479,0.7531,0.7554,0.758,0.7555,0.7577,0.7543,0.755,0.7511,0.7513,0.7381,0.7366,0.7512,0.7511,0.751,0,0.7156,0.7146,0.7202,0.7207,0.7229,0.7237,0.7248,0.7309,0.7318,0.7356,0.7348,0.7364,0.7379,0.7393,0.7436,0.7454,0.7475,0.7428,0.7478,0.7461,0.7472,0.7471,0.7469,0.7416,0.7414,0.7412,0.7411,0,0.7035,0.7061,0.7076,0.7099,0.7111,0.7131,0.7156,0.7157,0.7224,0.7231,0.7243,0.7255,0.7279,0.7293,0.7318,0.7342,0.7386,0.7395,0.7388,0.7369,0.7349,0.7358,0.7511,0.7397,0.7399,0.74,0.74,0.7401,0.6938,0.6932,0.697,0.6984,0.7009,0.7031,0.703,0.7068,0.708,0.7105,0.714,0.7147,0.7182,0.722,0.7241,0.7246,0.7272,0.7261,0.7258,0.7254,0.7245,0.7351,0.7251,0.7252,0.7252,0.7253,0.7253,0,0.6818,0.6847,0.6859,0.6892,0.6902,0.6946,0.6975,0.6981,0.6987,0.7016,0.7031,0.7044,0.7059,0.7104,0.7123,0.7119,0.7139,0.7121,0.7121,0.7125,0.7222,0.7226,0.7104,0.7104,0.7104,0.7104,0.7104,0.7104,0.6757,0.6749,0.678,0.6785,0.6814,0.6822,0.6835,0.6855,0.6878,0.6891,0.6904,0.6934,0.697,0.6992,0.7006,0.7019,0.7022,0.6997,0.7016,0.7104,0.7119,0.7132,0.7136,0.6997,0.6997,0.6919,0.6918,0.6917]}]]